Погода в Майске

Погода в Майске : погода сейчас, прогноз погоды и архив. Всё, что Вы хотите узнать о погоде в Майске!

Хотите узнать прогноз погоды в Майске? Тогда Вам сюда: Погода в Майске

Поиск расширенной информации на нашем сайте:

Другие новости

Новости СМИ2

Главная страница сайта

Новости сайта

03.07.2017

Напоминаем, что на нашем специализированном сайте Метеоцентр.Азия вы можете получить высокодетализированные автоматические прогнозы погоды по пунктам России, СНГ и мира в авиационном формате (включающие направление и скорость ветра, видимость, явления погоды, количество и форму облачности, нижнюю и верхнюю границу облачности).


Погода в Майске - сегодня

Время (UTC), дата Ветер
(°,м/с) 
Видим.   Явления Облачность Т
(°С)
Тd
(°С)
f(%) Тe
(°С)
Pmin
(гПа)
dP
(гПа)
Po
(мм)
O2
(г/м3)
Тmin Tmax R s Состояние
почвы
12 15.06.18 140 (ЮВ) 20000 м    6/6 600 м 
[Cu med, cong]
+21.5 +10.4 49 +23  1003.6  -0.9  744  276    +23       
15 15.06.18 230 (ЮЗ) 20000 м    10/10 600 м кучево-дожд. 
[Cb cap]
+19.3 +10.9 58 +23  1004.1  0.5  744  278           
18 15.06.18 230 (ЮЗ) 20000 м  {ливн. осадки}  10/10 600 м 
[Sc]
+13.7 +12.6 93 +20  1004.3  -0.1  744  283           
21 15.06.18 200 (Ю) 20000 м    10/10 600 м 
[Sc]
+13.8 +12.3 91 +20  1004.1  -0.2  744  283           
00 16.06.18 270 (З) 20000 м    10/10 600 м 
[Sc]
+14.2 +12.7 91 +19  1004.8  0.7  745  283  +12.8    0.4    сухая 
03 16.06.18 290 (З) 20000 м    10/4 600 м средняя, верхняя 
[Sc|Ac cast|Ci sp]
+14.6 +9.8 73 +16  1006.1  1.3  746  283           
06 16.06.18 270 (З) 20000 м    10/3 600 м верхняя 
[Cu med, cong|Cs]
+18.9 +3.7 36 +20  1006.2  0.3  746  281           
09 16.06.18 270 (З) 20000 м    9/8 600 м верхняя 
[Cu med, cong|Cs]
+18.6 +3.5 37 +20  1006.6  0.4  746  281           
12 16.06.18 250 (З) 20000 м    8/3 600 м верхняя 
[Sc diur, vesp|Cs]
+20 +5.1 38 +20  1006.6  746  279    +20.6       
15 16.06.18 тихо ()   20000 м    9/6 600 м средняя 
[Sc|Ac cast]
+16 +6.1 52 +16  1007.2  0.4  747  283           
18 16.06.18 тихо ()   20000 м    6/3 600 м верхняя 
[Sc diur, vesp|Ci sp]
+8.6 +7.8 95 +9  1007.5  0.1  747  290           
21 16.06.18 тихо ()   1000 м  дымка  3/3 600 м 
[Sc diur, vesp]
+4.8 +4.8 100 +5  1007.2  -0.5  746  295           
00 17.06.18 140 (ЮВ) 20000 м    3/3 600 м 
[Sc]
+5.8 +5.6 99 +7  1007.5  0.3  746  294  +4        сухая 
03 17.06.18 250 (З) 20000 м    ясно 
+17.2 +5.2 45 +19  1006.9  -0.2  746  282           
06 17.06.18 тихо ()   20000 м    6/4 600 м верхняя 
[Cu med, cong|Ci]
+21 +2.8 30 +21  1005.8  -0.8  746  279           
09 17.06.18 160 (Ю) 20000 м    9/6 600 м верхняя 
[Sc diur, vesp|Cs]
+20.8 +2.5 30 +21  1004.8  -1  745  279           
12 17.06.18 160 (Ю) 20000 м    10/1 600 м средняя, верхняя 
[Cu hum|As trans|Ci fib]
+21.8 +3.3 30 +22  1004.1  -0.7  744  277    +22.2       
15 17.06.18 090 (В) 20000 м    9/1 600 м верхняя 
[Sc diur, vesp|Cs]
+19.5 +4.9 38 +21  1003  -1.1  744  279           
18 17.06.18 140 (ЮВ) 20000 м    8/8 600 м 
[Sc]
+13.8 +9.1 73 +15  1003.2  -0.1  744  284           
21 17.06.18 180 (Ю) 20000 м    ясно 
+8.5 +8.1 97 +10  1002.9  -0.5  743  289           
00 18.06.18 160 (Ю) 20000 м    ясно 
+10.3 +9.5 95 +12  1003.1  0.2  743  287  +6.8        сухая 
03 18.06.18 200 (Ю) 20000 м    8/0 верхняя 
[Ci]
+14.8 +8 64 +15  1003.5  0.6  744  283           
06 18.06.18 230 (ЮЗ) 20000 м    4/3 600 м верхняя 
[Cu hum|Ci]
+19 +4.7 39 +20  1003.3  744  279           
09 18.06.18 140 (ЮВ) 20000 м    10/6 600 м верхняя 
[Sc diur, vesp|Ci]
+19.8 +4.2 36 +21  1002.8  -0.4  743  279           
12 18.06.18 180 (Ю) 20000 м    10/3 600 м верхняя 
[Sc diur, vesp|Ci]
+20.2 +4 34 +20  1002.6  -0.2  743  278    +21.4       
Время (UTC), дата Ветер
(°,м/с) 
Видим.   Явления Облачность Т
(°С)
Тd
(°С)
f(%) Тe
(°С)
Pmin
(гПа)
dP
(гПа)
Po
(мм)
O2
(г/м3)
Тmin Tmax R s Состояние
почвы

Для получения пояснительной информации подведите курсор к названию столбца.

ПОГОДА в Майске - архив

Всё, что Вы хотите узнать о погоде в Майске - удобно и подробно!

Выберите нужную дату (начиная с 1 января 2015* года) и нажмите кнопку "Найти".
Будут отображены архивные сводки погоды по пункту Майск, начиная с указанной даты.


Отображать данные в формате CSV (для использования в таблицах Excel)


Внимание! Наш архив погоды предназначен исключительно для личного некоммерческого использования в познавательных целях. Если Вам необходимы официальные справки о состоянии погоды (для производственных, юридических, коммерческих и т.п. целей), обращайтесь в органы Росгидромета.

*Примечание: данная дата относится к архиву по метеостанциям СССР (Россия, СНГ, Балтия).
Архив по метеостанциям Зарубежной Европы и Азии (кроме Китая) хранится 10 дней, по другим регионам земного шара (Китай, Африка, Америка, Австралия, Океания) - 1 день.

Майск - район местоположения метеостанции


Название, широта, долгота, высота метеостанции:
Майск 57.8°ш. 77.3°д. 100 м над ур. моря [Российская Федерация]

Дополнительная информация

В oтличие oт бoльшинства пoгoдных сайтoв мы публикуем пoдрoбную метеoинфoрмацию в детальнoм прoфессиoнальнoм фoрмате.

Характеристики температуры и влажнoсти вoздуха измеряются на высoте 2 м в тени вдали oт зданий и деревьев.
Скoрoсть ветра измеряется на высoте 10 м (на урoвне рoста челoвека скoрoсть ветра ниже в 1.5-2 раза). Если метеoстанция нахoдится в гoрoде или в лесу, тo скoрoсть ветра занижена на 2-4 м/с пo сравнению с oткрытым местoм. Скoрoсть ветра над акватoриями крупных рек и oзёр, а также на вершинах хoлмoв на 2-5 м/с выше, чем в oбычных услoвиях.
Атмoсфернoе давление в разных тoчках местнoсти мoжет значительнo oтличаться oт давления на метеoстанции, в зависимoсти oт услoвий рельефа (при пoдъёме на 10 м давление пoнижается примернo на 1 мм рт.ст.).